Prescott, AZ

10:33 PM MST on November 18, 2019 (GMT -0700)
Love

Weather History for KPRC - June, 2019

Change the Weather History Date:

Friday, June 14, 2019

  Actual Average Record
Temperature  
Mean Temperature 72 °F 70 °F  
Max Temperature 86 °F 86 °F 98 °F (1961)
Min Temperature 57 °F 54 °F 39 °F (2001)
Degree Days  
Heating Degree Days 0    
Month to date heating degree days 2  
Since 1 July heating degree days 4330  
Cooling Degree Days 6    
Month to date cooling degree days 71  
Year to date cooling degree days 72  
Growing Degree Days 22 (Base 50)    
Moisture  
Dew Point 23 °F    
Average Humidity 16    
Maximum Humidity 30    
Minimum Humidity 7    
Precipitation  
Precipitation 0.00 in 0.01 in 0.22 in (1972)
Month to date precipitation 0.11 0.12  
Year to date precipitation 6.79 4.66  
Sea Level Pressure  
Sea Level Pressure 29.76 in    
Wind  
Wind Speed 9 mph ()    
Max Wind Speed 24 mph    
Max Gust Speed 29 mph    
Visibility 10.0 miles    
Events      
T = Trace of Precipitation, MM = Missing Value Source: Averaged Metar Reports

Daily Weather History Graph

Daily Weather History Graph

Search for Another Location

Airport or City:

Astronomy

Jun. 14, 2019 Rise Set
Actual Time 5:16 AM MST 7:43 PM MST
Civil Twilight 4:46 AM MST 8:13 PM MST
Nautical Twilight 4:10 AM MST 8:49 PM MST
Astronomical Twilight 3:30 AM MST 9:29 PM MST
Moon 5:16 PM MST (6/14) 3:28 AM MST (6/14)
Length of Visible Light 15h 26m
Length of Day
14h 27m
Waxing Gibbous, 93% of the Moon is Illuminated
Jun 14
Waxing Gibbous
Jun 17
Full
Jun 25
Last Quarter
Jul 2
New
Jul 9
First Quarter

Hourly Weather History & Observations

Time (MST) Temp. Dew Point Humidity Pressure Visibility Wind Dir Wind Speed Gust Speed Precip Events Conditions
12:53 AM 62.1 °F 30.0 °F 30% 29.76 in 10.0 mi SW 9.2 mph - N/A   Clear
1:53 AM 64.9 °F 23.0 °F 20% 29.73 in 10.0 mi SSW 8.1 mph - N/A   Clear
2:53 AM 60.1 °F 28.0 °F 30% 29.75 in 10.0 mi South 9.2 mph - N/A   Clear
3:53 AM 64.9 °F 23.0 °F 20% 29.72 in 10.0 mi SSW 6.9 mph - N/A   Clear
4:53 AM 63.0 °F 24.1 °F 23% 29.74 in 10.0 mi ESE 9.2 mph - N/A   Clear
5:53 AM 63.0 °F 26.1 °F 25% 29.74 in 10.0 mi SE 3.5 mph - N/A   Clear
6:53 AM 68.0 °F 28.9 °F 23% 29.75 in 10.0 mi ESE 5.8 mph - N/A   Clear
7:53 AM 72.0 °F 30.0 °F 21% 29.77 in 10.0 mi Variable 6.9 mph - N/A   Clear
8:53 AM 77.0 °F 30.0 °F 18% 29.78 in 10.0 mi ESE 10.4 mph - N/A   Clear
9:53 AM 81.0 °F 19.0 °F 10% 29.77 in 10.0 mi SSW 10.4 mph - N/A   Clear
10:53 AM 82.9 °F 12.9 °F 7% 29.79 in 10.0 mi SSW 16.1 mph 24.2 mph N/A   Clear
11:53 AM 84.9 °F 14.0 °F 7% 29.79 in 10.0 mi SW 17.3 mph 23.0 mph N/A   Clear
12:53 PM 84.0 °F 19.9 °F 9% 29.79 in 10.0 mi South 17.3 mph 21.9 mph N/A   Clear
1:53 PM 84.9 °F 19.0 °F 9% 29.77 in 10.0 mi South 15.0 mph 24.2 mph N/A   Clear
2:53 PM 84.9 °F 18.0 °F 8% 29.77 in 10.0 mi South 17.3 mph 25.3 mph N/A   Clear
3:53 PM 84.0 °F 19.9 °F 9% 29.75 in 10.0 mi WSW 18.4 mph 28.8 mph N/A   Clear
4:53 PM 82.9 °F 25.0 °F 12% 29.75 in 10.0 mi SW 17.3 mph 24.2 mph N/A   Clear
5:53 PM 82.0 °F 25.0 °F 12% 29.75 in 10.0 mi SW 12.7 mph - N/A   Clear
6:53 PM 79.0 °F 26.1 °F 14% 29.75 in 10.0 mi SW 6.9 mph - N/A   Clear